Location: Gooium
(53.1009°N, 5.4061°E)
Time: 17:58:43
(UTC+00:00)

Daily predictions for brighter satellites

Satellite Brightness Start Highest point End
(mag) Time Altitude Azimuth Time Altitude Azimuth Time Altitude Azimuth
Cosmos 1818 3.6 20:50:21 10° SSW 20:55:44 66° SE 21:01:09 10° NE
Cosmos 2221 3.5 20:54:04 10° N 20:58:07 34° ENE 21:02:07 10° SE
Cosmos 773 Rocket 4.3 20:53:39 10° S 20:58:45 50° ESE 21:03:51 10° NE
SL-16 R/B 3.2 20:54:05 10° SW 20:59:38 54° NW 21:05:15 10° NNE
GEOS 3 Rocket 3.8 20:57:19 10° NE 21:02:39 56° SE 21:07:56 10° SSW
ERS-1 Rocket 3.0 20:57:48 10° SSE 21:02:51 89° ENE 21:07:56 10° NNW
USA 215 3.7 21:00:05 10° ENE 21:06:09 38° SE 21:12:09 10° SSW
Cosmos 2278 Rocket 2.6 21:01:35 10° NNW 21:07:12 57° NE 21:12:47 10° SE
Cosmos 1844 Rocket 3.7 21:06:41 10° NW 21:11:52 40° WSW 21:17:01 10° S
ATLAS 5 CENTAUR R/B 1.5 21:08:05 10° SW 21:12:17 69° SE 21:17:05 10° NE
Cosmos 1400 Rocket 3.8 21:08:45 10° NNW 21:12:34 43° W 21:16:19 10° SSW
Meteor 1-11 4.3 21:07:52 10° S 21:13:28 70° E 21:19:10 10° NNE
Gblst 52 Del rocket 4.5 21:08:07 10° W 21:13:39 58° SSW 21:19:45 10° SE
Cosmos 1943 Rocket 4.3 21:10:20 10° NNW 21:14:32 20° NNE 21:18:43 10° ENE
Cosmos 1758 Rocket 4.2 21:12:04 10° SSW 21:16:30 59° WNW 21:20:58 10° N
SPOT 5 3.0 21:14:33 10° S 21:19:35 77° WSW 21:24:23 10° NNW
Lacrosse 5 rocket 2.4 21:15:59 10° W 21:20:06 49° N 21:24:00 10° ENE
USA 81 4.1 21:21:08 10° S 21:26:24 82° E 21:31:43 10° N
BREEZE M DEB (TANK) 4.0 21:25:31 10° WSW 21:26:36 12° SW 21:27:35 10° S
Cosmos 2181 Rocket 4.2 21:20:58 10° NNW 21:27:22 77° W 21:33:36 10° S
Cosmos 2058 4.1 21:25:00 11° SE 21:28:16 27° E 21:31:46 10° NNE
Cosmos 1408 4.4 21:29:06 10° SE 21:31:20 17° E 21:33:41 10° NE
TSX-5 3.6 21:30:42 10° NNW 21:34:04 78° NE 21:37:35 13° SE
Cosmos 2074 Rocket 4.2 21:29:34 10° S 21:35:38 57° E 21:41:43 10° NNE
Cosmos 1076 Rocket 4.5 21:36:08 13° SSE 21:39:27 31° E 21:43:15 10° NNE
Cosmos 1953 Rocket 4.1 21:35:20 10° SSW 21:39:37 60° WNW 21:43:55 10° N
USA 267 3.3 21:34:29 10° SE 21:41:03 71° SSW 21:47:38 10° WNW
CZ-4C R/B 4.1 21:37:01 10° NW 21:42:57 38° NNE 21:49:55 10° E
Cosmos 2084 4.2 21:40:17 10° WNW 21:44:32 43° SW 21:48:05 14° SSE
Cosmos 1842 Rocket 3.6 21:40:41 10° NNW 21:45:04 79° W 21:49:02 12° S
COSMOS 2455 4.2 21:41:25 10° NW 21:46:57 35° NNE 21:52:28 10° E
Cosmos 2322 Rocket 4.0 21:42:04 10° WSW 21:47:11 35° NW 21:52:20 10° NNE
MTI 3.8 21:47:39 10° NNE 21:50:43 58° ESE 21:53:10 15° S
ATLAS CENTAUR R/B 2.4 21:52:38 10° WNW 21:55:52 29° WSW 21:58:26 14° S
Cosmos 923 Rocket 4.4 21:52:19 11° S 21:57:05 47° ESE 22:02:08 10° NE
Cosmos 2369 Rocket 4.1 21:54:37 10° NNW 21:59:12 25° NE 22:03:46 10° E
Cosmos 1825 3.6 21:58:09 15° SE 22:00:22 24° E 22:03:28 10° NE
ALOS 2 3.9 21:58:03 11° SE 22:01:44 32° ENE 22:05:39 10° N
Cosmos 1980 4.2 21:56:55 12° S 22:01:52 42° ESE 22:07:10 10° NE
Cosmos 1869 3.8 22:02:06 10° NNW 22:06:01 56° W 22:09:22 14° S
COSMOS 2428 2.7 22:01:00 10° SSW 22:06:41 90° ESE 22:12:25 10° NNE
Cosmos 2322 4.3 22:05:02 10° SW 22:10:41 60° NW 22:16:23 10° NNE
Cosmos 1624 Rocket 4.1 22:07:27 10° NNW 22:12:43 71° ENE 22:16:57 16° SE
NOSS 3-4 (A) 3.9 22:06:13 10° NW 22:13:04 77° SW 22:19:46 14° SE
NOSS 3-4 (C) 3.8 22:06:20 10° NW 22:13:10 78° SW 22:19:54 14° SE
NOSS 0 Rocket 4.0 22:08:09 10° SSW 22:14:10 60° ESE 22:20:15 10° NE
Terra 3.0 22:10:46 10° SSW 22:15:07 35° W 22:19:30 10° NNW
Cosmos 2237 Rocket 2.4 22:14:58 12° S 22:20:05 53° ESE 22:25:38 10° NE
Genesis I 4.2 22:18:36 19° SSE 22:20:31 29° ESE 22:23:54 10° ENE
SL-4 R/B 3.2 22:20:16 10° E 22:20:54 11° ENE 22:21:31 10° NE
Cosmos 2219 Rocket 2.6 22:16:59 10° SW 22:22:33 67° NW 22:28:11 10° NNE
Cosmos 2344 4.0 22:16:02 11° S 22:22:41 41° ESE 22:30:07 10° NE
Cosmos 2360 Rocket 4.0 22:19:57 10° WSW 22:25:03 34° NW 22:30:13 10° NNE
NOSS 3-3 (A) 4.0 22:19:10 10° SW 22:25:11 89° SE 22:32:06 10° NE
NOSS 3-3 (C) 4.0 22:19:16 10° SW 22:25:17 88° SE 22:32:13 10° NE
Thor Agena Rocket 3.6 22:24:15 10° NNE 22:29:21 64° ESE 22:33:18 17° S
Cosmos 2333 Rocket 2.9 22:27:09 10° SW 22:32:46 57° NW 22:38:27 10° NNE
Cosmos 2184 Rocket 4.4 22:27:39 10° SSW 22:33:50 65° WNW 22:40:10 10° N
Cosmos 2221 3.9 22:31:45 10° NNW 22:35:38 32° W 22:39:20 11° SSW
Iridium 2 3.8 22:36:06 10° N 22:39:55 70° W 22:42:26 20° S
Cosmos 1371 Rocket 4.1 22:35:14 10° NNW 22:40:28 68° WSW 22:44:15 19° S
BREEZE-M DEB (TANK) 2.3 22:36:46 10° W 22:40:31 34° SSW 22:41:22 27° SSE
ATLAS 2AS CENTAUR R/B 3.0 22:33:25 10° NW 22:40:57 62° SW 22:46:24 17° SSE
EO 1 Del DPAF 3.1 22:38:44 10° NNE 22:42:31 75° ESE 22:44:59 20° S
MOS 1-B Rocket 4.5 22:36:12 10° NNE 22:44:12 75° ESE 22:49:57 15° S
Cosmos 1892 3.3 22:41:59 13° SSW 22:45:12 51° WNW 22:48:57 10° N
Cosmos 1766 Rocket 4.1 22:44:24 20° SSE 22:47:03 45° E 22:51:16 10° NNE
Cosmos 1328 Rocket 3.9 22:43:18 10° N 22:47:35 55° ENE 22:50:25 20° SSE
Aureole 2 Rocket 1.8 22:44:52 10° NNW 22:47:41 88° WSW 22:48:59 29° SSE
USA 215 3.2 22:43:04 10° ENE 22:49:41 86° SSE 22:56:15 10° WSW
Okean 3 Rocket 3.9 22:47:02 21° SSE 22:49:51 54° E 22:54:11 10° NNE
Cosmos 1606 2.8 22:46:05 10° N 22:49:58 71° ENE 22:52:19 23° SSE
Cosmos 2278 Rocket 3.3 22:46:03 10° NW 22:51:03 33° WSW 22:54:59 15° SSW
Cosmos 2297 3.7 22:47:03 10° NNW 22:52:50 87° WSW 22:57:11 18° SSE
Cosmos 2112 Rocket 4.0 22:48:24 14° SSW 22:53:05 83° ESE 22:58:29 10° NNE
Cosmos 2218 Rocket 4.4 22:50:54 18° SSE 22:55:29 52° E 23:01:34 10° NNE
Cosmos 1420 Rocket 4.0 22:51:23 10° NNW 22:56:42 85° ENE 23:00:36 19° SSE
Cosmos 158 Rocket 3.8 22:52:57 13° SSW 22:57:15 87° WNW 23:02:13 10° NNE
ATLAS 5 CENTAUR R/B 3.5 22:53:09 10° W 22:57:18 36° NNW 23:02:02 10° NE
Cosmos 1943 Rocket 2.6 22:53:49 10° NNW 22:59:29 61° NE 23:04:40 12° SE
Lacrosse 5 rocket 1.7 22:55:37 10° WNW 22:59:41 61° NNE 23:03:31 10° E
Cosmos 2366 rocket 4.4 22:56:35 18° SSE 23:01:09 55° E 23:07:19 10° NNE
Spot 4 4.5 22:59:07 18° SSW 23:02:25 46° W 23:07:03 10° NNW
Cosmos 1633 4.3 23:01:11 16° SE 23:02:54 22° E 23:05:43 10° NE
Cosmos 2056 Rocket 4.0 22:59:06 10° NNW 23:04:21 53° WSW 23:07:58 20° S
SL-16 R/B 2.6 23:00:47 20° S 23:04:27 46° ESE 23:09:52 10° NE
TIMED 4.5 23:01:49 19° SSW 23:04:51 75° ESE 23:09:14 10° NNE
Cosmos 2058 4.2 23:01:12 10° SW 23:05:04 36° WNW 23:08:56 10° N
Cosmos 1408 3.3 23:03:24 16° SW 23:06:02 45° WNW 23:09:30 10° N
Cosmos 2341 Rocket 4.1 23:11:47 17° SSW 23:16:45 80° W 23:23:01 10° N
Cosmos 332 Rocket 3.8 23:13:16 10° NNW 23:18:07 84° ENE 23:21:28 20° SSE
Cosmos 1680 Rocket 4.1 23:16:19 10° SW 23:21:34 57° WNW 23:26:50 10° NNE
USA 267 4.3 23:21:24 18° S 23:24:50 28° SW 23:30:20 10° WNW
Meteor 2-3 Rocket 3.9 23:21:02 21° S 23:24:51 62° E 23:30:30 10° NNE
Cosmos 2151 3.5 23:23:52 17° SSW 23:26:59 53° WNW 23:31:12 10° N
IRIDIUM 104 4.3 23:23:26 21° S 23:27:01 86° W 23:32:18 10° N
Cosmos 405 3.4 23:23:38 10° N 23:27:09 56° ENE 23:29:08 23° SE
Helios 1A 2.9 23:24:53 23° SSE 23:27:24 88° WSW 23:31:37 10° NNW
Meteor 1-26 Rocket 4.4 23:25:04 10° NNW 23:31:07 84° WSW 23:35:20 20° S
Cosmos 1452 Rocket 3.5 23:26:13 10° NNW 23:31:30 77° WSW 23:35:06 21° SSE
CZ-4C R/B 3.1 23:25:42 10° NW 23:32:31 74° NE 23:40:33 10° SE
COSMOS 2455 2.8 23:27:24 10° NW 23:33:29 79° SW 23:38:24 16° SSE
SL-8 Rocket 4.0 23:30:59 18° SSW 23:35:43 77° WNW 23:41:55 10° N
Cosmos 1825 3.4 23:32:56 14° SW 23:35:44 34° WNW 23:39:16 10° N
Cosmos 1933 3.8 23:32:05 10° NNW 23:36:00 51° W 23:38:13 23° SSW
IRIDIUM 114 4.4 23:32:35 20° SSW 23:36:12 74° W 23:41:28 10° N
Cosmos 1340 2.6 23:34:23 26° S 23:36:24 83° E 23:40:12 10° NNE
Cosmos 1151 Rocket 3.5 23:33:20 10° NNW 23:37:32 49° W 23:40:03 22° SSW
ALOS 2 3.5 23:35:27 20° SSW 23:38:00 38° W 23:42:07 10° NNW
Cosmos 1408 Rocket 3.5 23:35:56 23° S 23:38:36 85° E 23:43:03 10° NNE
SL-16 R/B 4.2 23:34:37 10° ESE 23:39:52 30° NE 23:45:10 10° N
Meteor 2-12 Rocket 4.5 23:37:27 19° SSW 23:42:00 83° W 23:48:12 10° N
Cosmos 1727 Rocket 4.0 23:37:17 10° NNW 23:43:33 81° W 23:48:04 20° S
APEX 2.9 23:41:10 10° NW 23:43:47 40° WSW 23:44:22 34° SSW
Cosmos 2369 Rocket 2.2 23:38:25 10° NNW 23:44:03 84° NE 23:48:49 15° SSE
Resurs 1-4 Rocket 4.4 23:41:50 10° ENE 23:44:10 13° E 23:46:29 10° ESE
GP-B 3.8 23:41:39 10° N 23:45:54 45° W 23:48:50 18° SSW
Cosmos 44 2.9 23:43:37 19° SSW 23:46:43 76° SE 23:51:12 10° NE
Cosmos 1500 Rocket 3.9 23:44:49 23° SSE 23:47:25 55° E 23:51:43 10° NNE
Cosmos 371 Rocket 3.9 23:43:04 10° NW 23:47:41 44° WSW 23:50:25 22° SSW
SL-4 R/B 2.1 23:48:58 22° W 23:48:58 22° W 23:50:42 10° NW
Helios 1B rocket 3.3 23:49:11 10° NNE 23:53:05 39° E 23:55:23 21° SSE
CREW DRAGON DEMO-1 DEB 3.0 23:54:49 24° SW 23:56:21 47° SSE 23:59:20 10° E
